Year,Month,Day,Hour,Minute,Value (Times are PST for windgust in km/hr)
2021,12,14,00,00,4.80
2021,12,14,00,01,3.20
2021,12,14,00,02,3.20
2021,12,14,00,03,4.80
2021,12,14,00,04,4.80
2021,12,14,00,05,4.80
2021,12,14,00,06,4.80
2021,12,14,00,07,3.20
2021,12,14,00,08,3.20
2021,12,14,00,09,4.80
2021,12,14,00,10,6.40
2021,12,14,00,11,4.80
2021,12,14,00,12,3.20
2021,12,14,00,13,3.20
2021,12,14,00,14,3.20
2021,12,14,00,15,3.20
2021,12,14,00,16,4.80
2021,12,14,00,17,3.20
2021,12,14,00,18,4.80
2021,12,14,00,19,4.80
2021,12,14,00,20,4.80
2021,12,14,00,21,4.80
2021,12,14,00,22,4.80
2021,12,14,00,23,1.60
2021,12,14,00,24,1.60
2021,12,14,00,25,3.20
2021,12,14,00,26,3.20
2021,12,14,00,27,3.20
2021,12,14,00,28,1.60
2021,12,14,00,29,3.20
2021,12,14,00,30,6.40
2021,12,14,00,31,8.10
2021,12,14,00,32,8.10
2021,12,14,00,33,9.60
2021,12,14,00,34,9.60
2021,12,14,00,35,9.60
2021,12,14,00,36,11.30
2021,12,14,00,37,8.10
2021,12,14,00,38,8.10
2021,12,14,00,39,9.60
2021,12,14,00,40,6.40
2021,12,14,00,41,6.40
2021,12,14,00,42,8.10
2021,12,14,00,43,8.10
2021,12,14,00,44,6.40
2021,12,14,00,45,3.20
2021,12,14,00,46,4.80
2021,12,14,00,47,4.80
2021,12,14,00,48,4.80
2021,12,14,00,49,3.20
2021,12,14,00,50,4.80
2021,12,14,00,51,6.40
2021,12,14,00,52,6.40
2021,12,14,00,53,6.40
2021,12,14,00,54,6.40
2021,12,14,00,55,6.40
2021,12,14,00,56,6.40
2021,12,14,00,57,6.40
2021,12,14,00,58,6.40
2021,12,14,00,59,6.40
2021,12,14,01,00,6.40
2021,12,14,01,01,9.60
2021,12,14,01,02,6.40
2021,12,14,01,03,8.10
2021,12,14,01,04,6.40
2021,12,14,01,05,4.80
2021,12,14,01,06,3.20
2021,12,14,01,07,6.40
2021,12,14,01,08,6.40
2021,12,14,01,09,6.40
2021,12,14,01,10,4.80
2021,12,14,01,11,4.80
2021,12,14,01,12,4.80
2021,12,14,01,13,3.20
2021,12,14,01,14,4.80
2021,12,14,01,15,4.80
2021,12,14,01,16,4.80
2021,12,14,01,17,3.20
2021,12,14,01,18,6.40
2021,12,14,01,19,6.40
2021,12,14,01,20,4.80
2021,12,14,01,21,4.80
2021,12,14,01,22,6.40
2021,12,14,01,23,6.40
2021,12,14,01,24,6.40
2021,12,14,01,25,4.80
2021,12,14,01,26,3.20
2021,12,14,01,27,4.80
2021,12,14,01,28,3.20
2021,12,14,01,29,3.20
2021,12,14,01,30,3.20
2021,12,14,01,31,3.20
2021,12,14,01,32,4.80
2021,12,14,01,33,4.80
2021,12,14,01,34,3.20
2021,12,14,01,35,6.40
2021,12,14,01,36,6.40
2021,12,14,01,37,6.40
2021,12,14,01,38,6.40
2021,12,14,01,39,6.40
2021,12,14,01,40,8.10
2021,12,14,01,41,6.40
2021,12,14,01,42,6.40
2021,12,14,01,43,9.60
2021,12,14,01,44,8.10
2021,12,14,01,45,6.40
2021,12,14,01,46,6.40
2021,12,14,01,47,6.40
2021,12,14,01,48,9.60
2021,12,14,01,49,8.10
2021,12,14,01,50,6.40
2021,12,14,01,51,8.10
2021,12,14,01,52,9.60
2021,12,14,01,53,6.40
2021,12,14,01,54,4.80
2021,12,14,01,55,6.40
2021,12,14,01,56,8.10
2021,12,14,01,57,4.80
2021,12,14,01,58,4.80
2021,12,14,01,59,6.40
2021,12,14,02,00,4.80
2021,12,14,02,01,4.80
2021,12,14,02,02,1.60
2021,12,14,02,03,1.60
2021,12,14,02,04,3.20
2021,12,14,02,05,1.60
2021,12,14,02,06,1.60
2021,12,14,02,12,3.20
2021,12,14,02,13,1.60
2021,12,14,02,15,1.60
2021,12,14,02,16,1.60
2021,12,14,02,17,1.60
2021,12,14,02,19,8.10
2021,12,14,02,20,11.30
2021,12,14,02,21,8.10
2021,12,14,02,22,11.30
2021,12,14,02,23,11.30
2021,12,14,02,24,6.40
2021,12,14,02,25,6.40
2021,12,14,02,26,6.40
2021,12,14,02,27,6.40
2021,12,14,02,28,8.10
2021,12,14,02,29,11.30
2021,12,14,02,30,11.30
2021,12,14,02,31,11.30
2021,12,14,02,32,11.30
2021,12,14,02,33,9.60
2021,12,14,02,34,6.40
2021,12,14,02,35,11.30
2021,12,14,02,36,8.10
2021,12,14,02,37,6.40
2021,12,14,02,38,6.40
2021,12,14,02,39,4.80
2021,12,14,02,40,6.40
2021,12,14,02,41,6.40
2021,12,14,02,42,6.40
2021,12,14,02,43,6.40
2021,12,14,02,44,6.40
2021,12,14,02,45,8.10
2021,12,14,02,46,8.10
2021,12,14,02,47,8.10
2021,12,14,02,48,6.40
2021,12,14,02,49,4.80
2021,12,14,02,50,4.80
2021,12,14,02,51,4.80
2021,12,14,02,52,4.80
2021,12,14,02,53,6.40
2021,12,14,02,54,4.80
2021,12,14,02,55,4.80
2021,12,14,02,56,6.40
2021,12,14,02,57,6.40
2021,12,14,02,58,6.40
2021,12,14,02,59,6.40
2021,12,14,03,00,8.10
2021,12,14,03,01,4.80
2021,12,14,03,02,6.40
2021,12,14,03,03,4.80
2021,12,14,03,04,6.40
2021,12,14,03,05,6.40
2021,12,14,03,06,4.80
2021,12,14,03,07,4.80
2021,12,14,03,08,4.80
2021,12,14,03,09,6.40
2021,12,14,03,10,6.40
2021,12,14,03,11,6.40
2021,12,14,03,12,4.80
2021,12,14,03,13,4.80
2021,12,14,03,14,4.80
2021,12,14,03,15,6.40
2021,12,14,03,16,3.20
2021,12,14,03,17,3.20
2021,12,14,03,18,4.80
2021,12,14,03,19,3.20
2021,12,14,03,20,3.20
2021,12,14,03,21,3.20
2021,12,14,03,22,3.20
2021,12,14,03,23,3.20
2021,12,14,03,24,3.20
2021,12,14,03,25,4.80
2021,12,14,03,26,4.80
2021,12,14,03,27,3.20
2021,12,14,03,28,3.20
2021,12,14,03,29,3.20
2021,12,14,03,30,3.20
2021,12,14,03,31,3.20
2021,12,14,03,32,3.20
2021,12,14,03,33,3.20
2021,12,14,03,34,3.20
2021,12,14,03,35,3.20
2021,12,14,03,36,1.60
2021,12,14,03,37,1.60
2021,12,14,03,38,1.60
2021,12,14,03,46,1.60
2021,12,14,03,47,3.20
2021,12,14,03,48,4.80
2021,12,14,03,49,3.20
2021,12,14,03,50,3.20
2021,12,14,03,51,3.20
2021,12,14,03,52,3.20
2021,12,14,03,53,3.20
2021,12,14,03,54,3.20
2021,12,14,03,55,1.60
2021,12,14,03,56,1.60
2021,12,14,03,57,1.60
2021,12,14,04,01,3.20
2021,12,14,04,02,3.20
2021,12,14,04,03,3.20
2021,12,14,04,04,3.20
2021,12,14,04,05,3.20
2021,12,14,04,06,3.20
2021,12,14,04,07,3.20
2021,12,14,04,08,3.20
2021,12,14,04,09,3.20
2021,12,14,04,10,1.60
2021,12,14,04,19,1.60
2021,12,14,04,20,3.20
2021,12,14,04,21,1.60
2021,12,14,04,22,3.20
2021,12,14,04,23,1.60
2021,12,14,04,24,3.20
2021,12,14,04,25,3.20
2021,12,14,04,26,1.60
2021,12,14,04,27,3.20
2021,12,14,04,28,3.20
2021,12,14,04,29,3.20
2021,12,14,04,30,3.20
2021,12,14,04,31,3.20
2021,12,14,04,32,1.60
2021,12,14,04,33,4.80
2021,12,14,04,34,4.80
2021,12,14,04,35,3.20
2021,12,14,04,36,3.20
2021,12,14,04,37,1.60
2021,12,14,04,40,3.20
2021,12,14,04,41,4.80
2021,12,14,04,42,1.60
2021,12,14,04,43,1.60
2021,12,14,04,44,3.20
2021,12,14,04,45,3.20
2021,12,14,04,46,3.20
2021,12,14,04,47,3.20
2021,12,14,04,48,3.20
2021,12,14,04,49,3.20
2021,12,14,04,50,1.60
2021,12,14,04,51,1.60
2021,12,14,04,52,1.60
2021,12,14,04,53,3.20
2021,12,14,04,54,3.20
2021,12,14,04,55,1.60
2021,12,14,04,56,1.60
2021,12,14,04,57,1.60
2021,12,14,04,58,1.60
2021,12,14,04,59,1.60
2021,12,14,05,00,1.60
2021,12,14,05,01,1.60
2021,12,14,05,02,1.60
2021,12,14,05,03,1.60
2021,12,14,05,14,3.20
2021,12,14,05,15,3.20
2021,12,14,05,16,3.20
2021,12,14,05,17,3.20
2021,12,14,05,18,1.60
2021,12,14,05,19,1.60
2021,12,14,05,20,1.60
2021,12,14,05,21,1.60
2021,12,14,05,22,1.60
2021,12,14,05,23,1.60
2021,12,14,05,24,3.20
2021,12,14,05,25,3.20
2021,12,14,05,26,3.20
2021,12,14,05,27,3.20
2021,12,14,05,28,4.80
2021,12,14,05,29,3.20
2021,12,14,05,30,3.20
2021,12,14,05,31,3.20
2021,12,14,05,32,3.20
2021,12,14,05,33,3.20
2021,12,14,05,34,3.20
2021,12,14,05,35,3.20
2021,12,14,05,36,3.20
2021,12,14,05,37,1.60
2021,12,14,05,45,3.20
2021,12,14,05,46,3.20
2021,12,14,05,47,3.20
2021,12,14,05,48,3.20
2021,12,14,05,49,3.20
2021,12,14,05,50,3.20
2021,12,14,05,51,1.60
2021,12,14,05,52,1.60
2021,12,14,05,53,3.20
2021,12,14,05,54,1.60
2021,12,14,05,55,3.20
2021,12,14,05,56,1.60
2021,12,14,05,57,1.60
2021,12,14,05,58,3.20
2021,12,14,05,59,3.20
2021,12,14,06,00,1.60
2021,12,14,06,01,3.20
2021,12,14,06,02,3.20
2021,12,14,06,03,4.80
2021,12,14,06,04,4.80
2021,12,14,06,05,4.80
2021,12,14,06,06,4.80
2021,12,14,06,07,3.20
2021,12,14,06,08,1.60
2021,12,14,06,09,3.20
2021,12,14,06,10,3.20
2021,12,14,06,11,1.60
2021,12,14,06,12,1.60
2021,12,14,06,17,4.80
2021,12,14,06,18,6.40
2021,12,14,06,19,4.80
2021,12,14,06,20,3.20
2021,12,14,06,21,6.40
2021,12,14,06,22,4.80
2021,12,14,06,23,4.80
2021,12,14,06,24,4.80
2021,12,14,06,25,3.20
2021,12,14,06,26,3.20
2021,12,14,06,27,3.20
2021,12,14,06,28,3.20
2021,12,14,06,29,1.60
2021,12,14,06,30,1.60
2021,12,14,06,31,1.60
2021,12,14,06,32,6.40
2021,12,14,06,33,4.80
2021,12,14,06,34,3.20
2021,12,14,06,35,4.80
2021,12,14,06,36,1.60
2021,12,14,06,39,3.20
2021,12,14,06,40,3.20
2021,12,14,06,41,3.20
2021,12,14,06,42,3.20
2021,12,14,06,43,3.20
2021,12,14,06,44,3.20
2021,12,14,06,45,4.80
2021,12,14,06,46,3.20
2021,12,14,06,47,4.80
2021,12,14,06,48,3.20
2021,12,14,06,49,3.20
2021,12,14,06,50,3.20
2021,12,14,06,51,3.20
2021,12,14,06,52,3.20
2021,12,14,06,53,3.20
2021,12,14,06,54,4.80
2021,12,14,06,55,3.20
2021,12,14,06,56,3.20
2021,12,14,06,57,3.20
2021,12,14,06,58,3.20
2021,12,14,06,59,3.20
2021,12,14,07,00,1.60
2021,12,14,07,01,3.20
2021,12,14,07,02,1.60
2021,12,14,07,03,1.60
2021,12,14,07,04,1.60
2021,12,14,07,05,1.60
2021,12,14,07,06,1.60
2021,12,14,07,07,1.60
2021,12,14,07,09,1.60
2021,12,14,07,10,1.60
2021,12,14,07,12,3.20
2021,12,14,07,13,3.20
2021,12,14,07,14,3.20
2021,12,14,07,15,4.80
2021,12,14,07,16,3.20
2021,12,14,07,17,3.20
2021,12,14,07,18,3.20
2021,12,14,07,19,3.20
2021,12,14,07,20,3.20
2021,12,14,07,21,3.20
2021,12,14,07,22,1.60
2021,12,14,07,23,1.60
2021,12,14,07,29,3.20
2021,12,14,07,30,3.20
2021,12,14,07,31,3.20
2021,12,14,07,32,1.60
2021,12,14,07,33,3.20
2021,12,14,07,34,3.20
2021,12,14,07,35,3.20
2021,12,14,07,36,3.20
2021,12,14,07,37,3.20
2021,12,14,07,38,3.20
2021,12,14,07,39,3.20
2021,12,14,07,40,3.20
2021,12,14,07,41,3.20
2021,12,14,07,42,3.20
2021,12,14,07,43,3.20
2021,12,14,07,44,3.20
2021,12,14,07,45,3.20
2021,12,14,07,46,3.20
2021,12,14,07,47,1.60
2021,12,14,07,48,4.80
2021,12,14,07,49,3.20
2021,12,14,07,50,3.20
2021,12,14,07,51,1.60
2021,12,14,07,52,3.20
2021,12,14,07,53,1.60
2021,12,14,07,54,3.20
2021,12,14,07,55,6.40
2021,12,14,07,56,4.80
2021,12,14,07,57,4.80
2021,12,14,07,58,3.20
2021,12,14,07,59,3.20
2021,12,14,08,00,3.20
2021,12,14,08,01,3.20
2021,12,14,08,02,3.20
2021,12,14,08,03,3.20
2021,12,14,08,04,3.20
2021,12,14,08,05,3.20
2021,12,14,08,06,4.80
2021,12,14,08,07,4.80
2021,12,14,08,08,3.20
2021,12,14,08,09,3.20
2021,12,14,08,10,3.20
2021,12,14,08,11,4.80
2021,12,14,08,12,3.20
2021,12,14,08,13,3.20
2021,12,14,08,14,3.20
2021,12,14,08,15,3.20
2021,12,14,08,16,3.20
2021,12,14,08,17,3.20
2021,12,14,08,18,3.20
2021,12,14,08,19,3.20
2021,12,14,08,20,3.20
2021,12,14,08,21,3.20
2021,12,14,08,22,4.80
2021,12,14,08,23,3.20
2021,12,14,08,24,3.20
2021,12,14,08,25,3.20
2021,12,14,08,26,3.20
2021,12,14,08,27,3.20
2021,12,14,08,28,3.20
2021,12,14,08,29,3.20
2021,12,14,08,30,4.80
2021,12,14,08,31,3.20
2021,12,14,08,32,4.80
2021,12,14,08,33,4.80
2021,12,14,08,34,3.20
2021,12,14,08,35,3.20
2021,12,14,08,36,3.20
2021,12,14,08,37,3.20
2021,12,14,08,38,3.20
2021,12,14,08,39,3.20
2021,12,14,08,40,3.20
2021,12,14,08,41,1.60
2021,12,14,08,42,3.20
2021,12,14,08,43,3.20
2021,12,14,08,44,3.20
2021,12,14,08,45,3.20
2021,12,14,08,46,3.20
2021,12,14,08,47,3.20
2021,12,14,08,48,4.80
2021,12,14,08,49,4.80
2021,12,14,08,50,4.80
2021,12,14,08,51,4.80
2021,12,14,08,52,4.80
2021,12,14,08,53,3.20
2021,12,14,08,54,3.20
2021,12,14,08,55,1.60
2021,12,14,08,56,3.20
2021,12,14,08,57,4.80
2021,12,14,08,58,3.20
2021,12,14,08,59,4.80
2021,12,14,09,00,4.80
2021,12,14,09,01,3.20
2021,12,14,09,02,3.20
2021,12,14,09,03,3.20
2021,12,14,09,04,3.20
2021,12,14,09,05,4.80
2021,12,14,09,06,4.80
2021,12,14,09,07,4.80
2021,12,14,09,08,4.80
2021,12,14,09,09,3.20
2021,12,14,09,10,4.80
2021,12,14,09,11,4.80
2021,12,14,09,12,4.80
2021,12,14,09,13,3.20
2021,12,14,09,14,3.20
2021,12,14,09,15,3.20
2021,12,14,09,16,3.20
2021,12,14,09,17,3.20
2021,12,14,09,18,1.60
2021,12,14,09,25,1.60
2021,12,14,09,27,3.20
2021,12,14,09,28,3.20
2021,12,14,09,29,3.20
2021,12,14,09,30,3.20
2021,12,14,09,31,4.80
2021,12,14,09,32,4.80
2021,12,14,09,33,6.40
2021,12,14,09,34,4.80
2021,12,14,09,35,4.80
2021,12,14,09,36,3.20
2021,12,14,09,37,3.20
2021,12,14,09,38,3.20
2021,12,14,09,39,4.80
2021,12,14,09,40,4.80
2021,12,14,09,41,3.20
2021,12,14,09,42,3.20
2021,12,14,09,43,3.20
2021,12,14,09,44,3.20
2021,12,14,09,45,3.20
2021,12,14,09,46,3.20
2021,12,14,09,47,3.20
2021,12,14,09,48,3.20
2021,12,14,09,49,4.80
2021,12,14,09,50,4.80
2021,12,14,09,51,4.80
2021,12,14,09,52,4.80
2021,12,14,09,53,4.80
2021,12,14,09,54,4.80
2021,12,14,09,55,4.80
2021,12,14,09,56,4.80
2021,12,14,09,57,4.80
2021,12,14,09,58,6.40
2021,12,14,09,59,4.80
2021,12,14,10,00,3.20
2021,12,14,10,01,8.10
2021,12,14,10,02,6.40
2021,12,14,10,03,6.40
2021,12,14,10,04,4.80
2021,12,14,10,05,4.80
2021,12,14,10,06,4.80
2021,12,14,10,07,6.40
2021,12,14,10,08,3.20
2021,12,14,10,09,3.20
2021,12,14,10,10,3.20
2021,12,14,10,11,3.20
2021,12,14,10,12,3.20
2021,12,14,10,13,4.80
2021,12,14,10,14,4.80
2021,12,14,10,15,4.80
2021,12,14,10,16,3.20
2021,12,14,10,17,3.20
2021,12,14,10,18,3.20
2021,12,14,10,19,3.20
2021,12,14,10,20,3.20
2021,12,14,10,21,3.20
2021,12,14,10,22,4.80
2021,12,14,10,23,4.80
2021,12,14,10,24,4.80
2021,12,14,10,25,3.20
2021,12,14,10,26,3.20
2021,12,14,10,27,3.20
2021,12,14,10,28,3.20
2021,12,14,10,29,3.20
2021,12,14,10,30,3.20
2021,12,14,10,31,3.20
2021,12,14,10,32,3.20
2021,12,14,10,33,3.20
2021,12,14,10,34,4.80
2021,12,14,10,35,4.80
2021,12,14,10,36,4.80
2021,12,14,10,37,3.20
2021,12,14,10,38,4.80
2021,12,14,10,39,3.20
2021,12,14,10,40,1.60
2021,12,14,10,41,1.60
2021,12,14,10,42,3.20
2021,12,14,10,43,8.10
2021,12,14,10,44,6.40
2021,12,14,10,45,8.10
2021,12,14,10,46,11.30
2021,12,14,10,47,6.40
2021,12,14,10,48,8.10
2021,12,14,10,49,8.10
2021,12,14,10,50,6.40
2021,12,14,10,51,4.80
2021,12,14,10,52,4.80
2021,12,14,10,53,3.20
2021,12,14,10,54,4.80
2021,12,14,10,55,6.40
2021,12,14,10,56,4.80
2021,12,14,10,57,3.20
2021,12,14,10,58,4.80
2021,12,14,10,59,4.80
2021,12,14,11,00,4.80
2021,12,14,11,01,3.20
2021,12,14,11,02,6.40
2021,12,14,11,03,4.80
2021,12,14,11,04,6.40
2021,12,14,11,05,6.40
2021,12,14,11,06,6.40
2021,12,14,11,07,4.80
2021,12,14,11,08,4.80
2021,12,14,11,09,3.20
2021,12,14,11,10,4.80
2021,12,14,11,11,4.80
2021,12,14,11,12,4.80
2021,12,14,11,13,9.60
2021,12,14,11,14,8.10
2021,12,14,11,15,8.10
2021,12,14,11,16,4.80
2021,12,14,11,17,8.10
2021,12,14,11,18,4.80
2021,12,14,11,19,6.40
2021,12,14,11,20,4.80
2021,12,14,11,21,3.20
2021,12,14,11,22,1.60
2021,12,14,11,23,1.60
2021,12,14,11,24,3.20
2021,12,14,11,25,3.20
2021,12,14,11,26,1.60
2021,12,14,11,27,3.20
2021,12,14,11,28,4.80
2021,12,14,11,29,8.10
2021,12,14,11,30,4.80
2021,12,14,11,31,6.40
2021,12,14,11,32,4.80
2021,12,14,11,33,4.80
2021,12,14,11,34,4.80
2021,12,14,11,35,4.80
2021,12,14,11,36,4.80
2021,12,14,11,37,6.40
2021,12,14,11,38,9.60
2021,12,14,11,39,6.40
2021,12,14,11,40,6.40
2021,12,14,11,41,3.20
2021,12,14,11,42,3.20
2021,12,14,11,43,4.80
2021,12,14,11,44,4.80
2021,12,14,11,45,11.30
2021,12,14,11,46,12.90
2021,12,14,11,47,12.90
2021,12,14,11,48,11.30
2021,12,14,11,49,12.90
2021,12,14,11,50,12.90
2021,12,14,11,51,14.50
2021,12,14,11,52,12.90
2021,12,14,11,53,11.30
2021,12,14,11,54,8.10
2021,12,14,11,55,14.50
2021,12,14,11,56,12.90
2021,12,14,11,57,14.50
2021,12,14,11,58,12.90
2021,12,14,11,59,14.50
2021,12,14,12,00,19.30
2021,12,14,12,01,22.50
2021,12,14,12,02,16.10
2021,12,14,12,03,16.10
2021,12,14,12,04,19.30
2021,12,14,12,05,17.70
2021,12,14,12,06,19.30
2021,12,14,12,07,17.70
2021,12,14,12,08,19.30
2021,12,14,12,09,19.30
2021,12,14,12,10,14.50
2021,12,14,12,11,16.10
2021,12,14,12,12,14.50
2021,12,14,12,13,16.10
2021,12,14,12,14,16.10
2021,12,14,12,15,22.50
2021,12,14,12,16,17.70
2021,12,14,12,17,14.50
2021,12,14,12,18,14.50
2021,12,14,12,19,20.90
2021,12,14,12,20,19.30
2021,12,14,12,21,17.70
2021,12,14,12,22,17.70
2021,12,14,12,23,16.10
2021,12,14,12,24,20.90
2021,12,14,12,25,17.70
2021,12,14,12,26,19.30
2021,12,14,12,27,17.70
2021,12,14,12,28,19.30
2021,12,14,12,29,17.70
2021,12,14,12,30,17.70
2021,12,14,12,31,14.50
2021,12,14,12,32,12.90
2021,12,14,12,33,14.50
2021,12,14,12,34,17.70
2021,12,14,12,35,16.10
2021,12,14,12,36,16.10
2021,12,14,12,37,16.10
2021,12,14,12,38,16.10
2021,12,14,12,39,14.50
2021,12,14,12,40,12.90
2021,12,14,12,41,16.10
2021,12,14,12,42,16.10
2021,12,14,12,43,14.50
2021,12,14,12,44,16.10
2021,12,14,12,45,14.50
2021,12,14,12,46,14.50
2021,12,14,12,47,16.10
2021,12,14,12,48,14.50
2021,12,14,12,49,11.30
2021,12,14,12,50,12.90
2021,12,14,12,51,14.50
2021,12,14,12,52,12.90
2021,12,14,12,53,16.10
2021,12,14,12,54,19.30
2021,12,14,12,55,16.10
2021,12,14,12,56,14.50
2021,12,14,12,57,16.10
2021,12,14,12,58,16.10
2021,12,14,12,59,16.10
2021,12,14,13,00,17.70
2021,12,14,13,01,16.10
2021,12,14,13,02,16.10
2021,12,14,13,03,17.70
2021,12,14,13,04,17.70
2021,12,14,13,05,16.10
2021,12,14,13,06,16.10
2021,12,14,13,07,19.30
2021,12,14,13,08,19.30
2021,12,14,13,09,17.70
2021,12,14,13,10,17.70
2021,12,14,13,11,17.70
2021,12,14,13,12,16.10
2021,12,14,13,13,17.70
2021,12,14,13,14,12.90
2021,12,14,13,15,17.70
2021,12,14,13,16,14.50
2021,12,14,13,17,14.50
2021,12,14,13,18,19.30
2021,12,14,13,19,17.70
2021,12,14,13,20,14.50
2021,12,14,13,21,12.90
2021,12,14,13,22,16.10
2021,12,14,13,23,17.70
2021,12,14,13,24,17.70
2021,12,14,13,25,17.70
2021,12,14,13,26,14.50
2021,12,14,13,27,12.90
2021,12,14,13,28,14.50
2021,12,14,13,29,14.50
2021,12,14,13,30,12.90
2021,12,14,13,31,12.90
2021,12,14,13,32,14.50
2021,12,14,13,33,14.50
2021,12,14,13,34,16.10
2021,12,14,13,35,16.10
2021,12,14,13,36,16.10
2021,12,14,13,37,16.10
2021,12,14,13,38,14.50
2021,12,14,13,39,14.50
2021,12,14,13,40,16.10
2021,12,14,13,41,16.10
2021,12,14,13,42,16.10
2021,12,14,13,43,16.10
2021,12,14,13,44,12.90
2021,12,14,13,45,16.10
2021,12,14,13,46,16.10
2021,12,14,13,47,14.50
2021,12,14,13,48,12.90
2021,12,14,13,49,12.90
2021,12,14,13,50,11.30
2021,12,14,13,51,12.90
2021,12,14,13,52,14.50
2021,12,14,13,53,12.90
2021,12,14,13,54,12.90
2021,12,14,13,55,14.50
2021,12,14,13,56,12.90
2021,12,14,13,57,11.30
2021,12,14,13,58,12.90
2021,12,14,13,59,12.90
2021,12,14,14,00,8.10
2021,12,14,14,01,6.40
2021,12,14,14,02,8.10
2021,12,14,14,03,9.60
2021,12,14,14,04,11.30
2021,12,14,14,05,12.90
2021,12,14,14,06,11.30
2021,12,14,14,07,11.30
2021,12,14,14,08,11.30
2021,12,14,14,09,14.50
2021,12,14,14,10,14.50
2021,12,14,14,11,16.10
2021,12,14,14,12,16.10
2021,12,14,14,13,16.10
2021,12,14,14,14,16.10
2021,12,14,14,15,16.10
2021,12,14,14,16,16.10
2021,12,14,14,17,17.70
2021,12,14,14,18,16.10
2021,12,14,14,19,16.10
2021,12,14,14,20,16.10
2021,12,14,14,21,11.30
2021,12,14,14,22,12.90
2021,12,14,14,23,11.30
2021,12,14,14,24,11.30
2021,12,14,14,25,11.30
2021,12,14,14,26,12.90
2021,12,14,14,27,12.90
2021,12,14,14,28,12.90
2021,12,14,14,29,17.70
2021,12,14,14,30,20.90
2021,12,14,14,31,16.10
2021,12,14,14,32,16.10
2021,12,14,14,33,19.30
2021,12,14,14,34,19.30
2021,12,14,14,35,17.70
2021,12,14,14,36,16.10
2021,12,14,14,37,14.50
2021,12,14,14,38,12.90
2021,12,14,14,39,14.50
2021,12,14,14,40,14.50
2021,12,14,14,41,17.70
2021,12,14,14,42,14.50
2021,12,14,14,43,16.10
2021,12,14,14,44,19.30
2021,12,14,14,45,16.10
2021,12,14,14,46,16.10
2021,12,14,14,47,17.70
2021,12,14,14,48,17.70
2021,12,14,14,49,16.10
2021,12,14,14,50,16.10
2021,12,14,14,51,14.50
2021,12,14,14,52,16.10
2021,12,14,14,53,17.70
2021,12,14,14,54,14.50
2021,12,14,14,55,17.70
2021,12,14,14,56,19.30
2021,12,14,14,57,16.10
2021,12,14,14,58,14.50
2021,12,14,14,59,16.10
2021,12,14,15,00,16.10
2021,12,14,15,01,16.10
2021,12,14,15,02,14.50
2021,12,14,15,03,16.10
2021,12,14,15,04,14.50
2021,12,14,15,05,14.50
2021,12,14,15,06,14.50
2021,12,14,15,07,16.10
2021,12,14,15,08,14.50
2021,12,14,15,09,17.70
2021,12,14,15,10,16.10
2021,12,14,15,11,17.70
2021,12,14,15,12,16.10
2021,12,14,15,13,14.50
2021,12,14,15,14,16.10
2021,12,14,15,15,16.10
2021,12,14,15,16,12.90
2021,12,14,15,17,16.10
2021,12,14,15,18,16.10
2021,12,14,15,19,14.50
2021,12,14,15,20,16.10
2021,12,14,15,21,19.30
2021,12,14,15,22,19.30
2021,12,14,15,23,22.50
2021,12,14,15,24,19.30
2021,12,14,15,25,17.70
2021,12,14,15,26,20.90
2021,12,14,15,27,20.90
2021,12,14,15,28,20.90
2021,12,14,15,29,20.90
2021,12,14,15,30,17.70
2021,12,14,15,31,19.30
2021,12,14,15,32,20.90
2021,12,14,15,33,24.20
2021,12,14,15,34,22.50
2021,12,14,15,35,17.70
2021,12,14,15,36,19.30
2021,12,14,15,37,19.30
2021,12,14,15,38,19.30
2021,12,14,15,39,17.70
2021,12,14,15,40,14.50
2021,12,14,15,41,14.50
2021,12,14,15,42,16.10
2021,12,14,15,43,17.70
2021,12,14,15,44,17.70
2021,12,14,15,45,17.70
2021,12,14,15,46,19.30
2021,12,14,15,47,19.30
2021,12,14,15,48,19.30
2021,12,14,15,49,17.70
2021,12,14,15,50,19.30
2021,12,14,15,51,19.30
2021,12,14,15,52,19.30
2021,12,14,15,53,19.30
2021,12,14,15,54,14.50
2021,12,14,15,55,16.10
2021,12,14,15,56,19.30
2021,12,14,15,57,17.70
2021,12,14,15,58,17.70
2021,12,14,15,59,20.90
2021,12,14,16,00,20.90
2021,12,14,16,01,16.10
2021,12,14,16,02,16.10
2021,12,14,16,03,16.10
2021,12,14,16,04,16.10
2021,12,14,16,05,17.70
2021,12,14,16,06,12.90
2021,12,14,16,07,19.30
2021,12,14,16,08,19.30
2021,12,14,16,09,17.70
2021,12,14,16,10,17.70
2021,12,14,16,11,17.70
2021,12,14,16,12,22.50
2021,12,14,16,13,20.90
2021,12,14,16,14,19.30
2021,12,14,16,15,20.90
2021,12,14,16,16,20.90
2021,12,14,16,17,19.30
2021,12,14,16,18,19.30
2021,12,14,16,19,22.50
2021,12,14,16,20,17.70
2021,12,14,16,21,16.10
2021,12,14,16,22,19.30
2021,12,14,16,23,17.70
2021,12,14,16,24,17.70
2021,12,14,16,25,16.10
2021,12,14,16,26,16.10
2021,12,14,16,27,17.70
2021,12,14,16,28,16.10
2021,12,14,16,29,16.10
2021,12,14,16,30,19.30
2021,12,14,16,31,17.70
2021,12,14,16,32,17.70
2021,12,14,16,33,19.30
2021,12,14,16,34,20.90
2021,12,14,16,35,19.30
2021,12,14,16,36,19.30
2021,12,14,16,37,20.90
2021,12,14,16,38,20.90
2021,12,14,16,39,22.50
2021,12,14,16,40,20.90
2021,12,14,16,41,20.90
2021,12,14,16,42,22.50
2021,12,14,16,43,19.30
2021,12,14,16,44,19.30
2021,12,14,16,45,22.50
2021,12,14,16,46,19.30
2021,12,14,16,47,16.10
2021,12,14,16,48,19.30
2021,12,14,16,49,16.10
2021,12,14,16,50,17.70
2021,12,14,16,51,16.10
2021,12,14,16,52,22.50
2021,12,14,16,53,20.90
2021,12,14,16,54,19.30
2021,12,14,16,55,20.90
2021,12,14,16,56,20.90
2021,12,14,16,57,20.90
2021,12,14,16,58,20.90
2021,12,14,16,59,22.50
2021,12,14,17,00,22.50
2021,12,14,17,01,17.70
2021,12,14,17,02,19.30
2021,12,14,17,03,17.70
2021,12,14,17,04,17.70
2021,12,14,17,05,19.30
2021,12,14,17,06,17.70
2021,12,14,17,07,17.70
2021,12,14,17,08,16.10
2021,12,14,17,09,14.50
2021,12,14,17,10,14.50
2021,12,14,17,11,12.90
2021,12,14,17,12,17.70
2021,12,14,17,13,17.70
2021,12,14,17,14,20.90
2021,12,14,17,15,20.90
2021,12,14,17,16,14.50
2021,12,14,17,17,16.10
2021,12,14,17,18,16.10
2021,12,14,17,19,16.10
2021,12,14,17,20,12.90
2021,12,14,17,21,12.90
2021,12,14,17,22,16.10
2021,12,14,17,23,14.50
2021,12,14,17,24,14.50
2021,12,14,17,25,12.90
2021,12,14,17,26,12.90
2021,12,14,17,27,16.10
2021,12,14,17,28,16.10
2021,12,14,17,29,12.90
2021,12,14,17,30,19.30
2021,12,14,17,31,17.70
2021,12,14,17,32,14.50
2021,12,14,17,33,16.10
2021,12,14,17,34,12.90
2021,12,14,17,35,12.90
2021,12,14,17,36,14.50
2021,12,14,17,37,16.10
2021,12,14,17,38,22.50
2021,12,14,17,39,20.90
2021,12,14,17,40,20.90
2021,12,14,17,41,19.30
2021,12,14,17,42,17.70
2021,12,14,17,43,20.90
2021,12,14,17,44,20.90
2021,12,14,17,45,19.30
2021,12,14,17,46,16.10
2021,12,14,17,47,16.10
2021,12,14,17,48,14.50
2021,12,14,17,49,14.50
2021,12,14,17,50,12.90
2021,12,14,17,51,14.50
2021,12,14,17,52,14.50
2021,12,14,17,53,16.10
2021,12,14,17,54,16.10
2021,12,14,17,55,14.50
2021,12,14,17,56,16.10
2021,12,14,17,57,16.10
2021,12,14,17,58,14.50
2021,12,14,17,59,12.90
2021,12,14,18,00,14.50
2021,12,14,18,01,14.50
2021,12,14,18,02,12.90
2021,12,14,18,03,14.50
2021,12,14,18,04,12.90
2021,12,14,18,05,14.50
2021,12,14,18,06,17.70
2021,12,14,18,07,14.50
2021,12,14,18,08,14.50
2021,12,14,18,09,12.90
2021,12,14,18,10,14.50
2021,12,14,18,11,14.50
2021,12,14,18,12,16.10
2021,12,14,18,13,14.50
2021,12,14,18,14,14.50
2021,12,14,18,15,14.50
2021,12,14,18,16,12.90
2021,12,14,18,17,12.90
2021,12,14,18,18,12.90
2021,12,14,18,19,17.70
2021,12,14,18,20,17.70
2021,12,14,18,21,16.10
2021,12,14,18,22,16.10
2021,12,14,18,23,16.10
2021,12,14,18,24,22.50
2021,12,14,18,25,20.90
2021,12,14,18,26,17.70
2021,12,14,18,27,20.90
2021,12,14,18,28,19.30
2021,12,14,18,29,19.30
2021,12,14,18,30,25.70
2021,12,14,18,31,25.70
2021,12,14,18,32,25.70
2021,12,14,18,33,22.50
2021,12,14,18,34,22.50
2021,12,14,18,35,24.20
2021,12,14,18,36,22.50
2021,12,14,18,37,24.20
2021,12,14,18,38,27.40
2021,12,14,18,39,22.50
2021,12,14,18,40,24.20
2021,12,14,18,41,19.30
2021,12,14,18,42,24.20
2021,12,14,18,43,22.50
2021,12,14,18,44,22.50
2021,12,14,18,45,25.70
2021,12,14,18,46,24.20
2021,12,14,18,47,24.20
2021,12,14,18,48,24.20
2021,12,14,18,49,19.30
2021,12,14,18,50,20.90
2021,12,14,18,51,17.70